Weather History for Nassau, Bahamas

Change the Weather History Date:

Sunday, May 18, 2014

  Actual Average Record
Temperature  
Mean Temperature 80 °F -  
Max Temperature 85 °F 86 °F 91 °F (2007)
Min Temperature 75 °F 72 °F 64 °F (1998)
Cooling Degree Days 15    
Growing Degree Days 30 (Base 50)    
Moisture  
Dew Point 68 °F    
Average Humidity 69    
Maximum Humidity 94    
Minimum Humidity 55    
Precipitation  
Precipitation 0.00 in 0.24 in - ()
Sea Level Pressure  
Sea Level Pressure 30.05 in    
Wind  
Wind Speed 12 mph ()    
Max Wind Speed 18 mph    
Max Gust Speed -    
Visibility 6.8 miles    
Events Rain    
Averages and records for this station are not official NWS values.
T = Trace of Precipitation, MM = Missing Value Source: Averaged Metar Reports

Daily Weather History Graph

Daily Weather History Graph

Search for Another Location

Airport:

Trip Planner

Search our weather history database for the weather conditions in past years. The results will help you decide how hot, cold, wet, or windy it might be!

Date:

Astronomy

May. 18, 2014 Rise Set
Actual Time 6:24 AM EDT 7:48 PM EDT
Civil Twilight 5:59 AM EDT 8:13 PM EDT
Nautical Twilight 5:29 AM EDT 8:43 PM EDT
Astronomical Twilight 4:58 AM EDT 9:14 PM EDT
Moon 11:42 PM EDT (5/18) 10:06 AM EDT (5/18)
Length of Visible Light 14h 14m
Length of Day
13h 24m
Waning Gibbous, 81% of the Moon is Illuminated
May 18
Waning Gibbous
May 21
Last Quarter
May 28
New
Jun 5
First Quarter
Jun 13
Full

Hourly Weather History & Observations

Time (EDT) Temp. Heat Index Dew Point Humidity Pressure Visibility Wind Dir Wind Speed Gust Speed Precip Events Conditions
12:00 AM 75.2 °F - 73.4 °F 94% 30.03 in 5.6 mi NNE 9.2 mph - N/A Rain Light Rain Showers
1:00 AM 77.0 °F - 68.0 °F 74% 30.04 in 6.2 mi NE 16.1 mph - N/A   Mostly Cloudy
2:00 AM 77 °F - 70 °F 74% 30.03 in 8 mi ENE 18.4 mph - -   Mostly Cloudy
2:00 AM 77.0 °F - 69.8 °F 78% 30.03 in 6.2 mi ENE 18.4 mph - N/A   Mostly Cloudy
3:00 AM 77.0 °F - 68.0 °F 74% 30.02 in 6.2 mi ENE 17.3 mph - N/A   Mostly Cloudy
4:00 AM 75.2 °F - 66.2 °F 73% 30.01 in 6.2 mi NE 16.1 mph - N/A   Mostly Cloudy
5:00 AM 77 °F - 67 °F 65% 30.02 in 8 mi ENE 16.1 mph - -   Partly Cloudy
5:00 AM 77.0 °F - 68.0 °F 74% 30.01 in 6.2 mi ENE 16.1 mph - N/A   Mostly Cloudy
7:00 AM 75.2 °F - 66.2 °F 73% 30.04 in 6.2 mi ENE 16.1 mph - N/A   Mostly Cloudy
8:00 AM 77 °F - 69 °F 70% 30.06 in 8 mi ENE 9.2 mph - -   Partly Cloudy
8:00 AM 77.0 °F - 69.8 °F 78% - 6.2 mi ENE 9.2 mph - N/A   Mostly Cloudy
9:00 AM 77.0 °F - 66.2 °F 69% 30.07 in 6.2 mi NE 11.5 mph - N/A   Overcast
10:00 AM 78.8 °F - 68.0 °F 69% 30.07 in 6.2 mi NNE 11.5 mph - N/A   Mostly Cloudy
11:00 AM 81 °F - 70 °F 61% 30.09 in 9 mi East 12.7 mph - -   Mostly Cloudy
11:00 AM 80.6 °F 83.9 °F 69.8 °F 70% 30.08 in 6.2 mi East 12.7 mph - N/A   Mostly Cloudy
12:00 PM 80.6 °F 83.2 °F 68.0 °F 65% 30.08 in 6.2 mi NNE 12.7 mph - N/A   Scattered Clouds
1:00 PM 80.6 °F 82.3 °F 64.4 °F 58% 30.07 in 6.2 mi East 15.0 mph - N/A   Partly Cloudy
2:00 PM 82 °F - 69 °F 56% 30.06 in 9 mi NNE 12.7 mph - -   Scattered Clouds
2:00 PM 82.4 °F 85.4 °F 68.0 °F 62% 30.06 in 6.2 mi NNE 12.7 mph - N/A   Scattered Clouds
3:00 PM 80.6 °F 82.7 °F 66.2 °F 61% 30.04 in 6.2 mi NNE 12.7 mph - N/A   Mostly Cloudy
4:00 PM 78.8 °F - 66.2 °F 65% 30.03 in 6.2 mi NE 11.5 mph - N/A   Mostly Cloudy
5:00 PM 81 °F - 68 °F 55% 30.03 in 9 mi NE 11.5 mph - -   Partly Cloudy
6:00 PM 78.8 °F - 66.2 °F 65% 30.02 in 6.2 mi NE 10.4 mph - N/A   Mostly Cloudy
7:00 PM 77.0 °F - 66.2 °F 69% 30.02 in 6.2 mi NNE 12.7 mph - N/A   Mostly Cloudy
8:00 PM 78 °F - 68 °F 65% 30.04 in 9 mi ENE 6.9 mph - -   Partly Cloudy
8:00 PM 77.0 °F - 68.0 °F 74% 30.03 in 6.2 mi ENE 6.9 mph - N/A   Mostly Cloudy
9:00 PM 77.0 °F - 66.2 °F 69% 30.05 in 6.2 mi NE 13.8 mph - N/A   Mostly Cloudy
10:00 PM 75.2 °F - 66.2 °F 73% 30.07 in 6.2 mi NE 8.1 mph - N/A   Scattered Clouds
11:00 PM 77.0 °F - 66.2 °F 69% 30.08 in 6.2 mi ENE 11.5 mph - N/A   Mostly Cloudy